Time,TemperatureF,DewpointF,PressureIn,WindDirection,WindDirectionDegrees,WindSpeedMPH,WindSpeedGustMPH,Humidity,HourlyPrecipIn,Conditions,Clouds,dailyrainin,SolarRadiationWatts/m^2,SoftwareType,DateUTC
2013-03-22 00:02:00,28.0,17.0,-100.00,SW,231,11.0,15.0,63,-99.99,,,-99.99,-0.100000,,2013-03-22 06:02:00,
2013-03-22 00:12:00,28.0,17.0,-100.00,SW,228,10.0,13.0,63,-99.99,,,-99.99,-0.100000,,2013-03-22 06:12:00,
2013-03-22 00:21:00,28.0,17.0,-100.00,SW,233,10.0,13.0,64,-99.99,,,-99.99,-0.100000,,2013-03-22 06:21:00,
2013-03-22 00:32:00,27.0,17.0,-100.00,SW,232,9.0,13.0,63,-99.99,,,-99.99,-0.100000,,2013-03-22 06:32:00,
2013-03-22 00:41:00,27.0,17.0,-100.00,SW,229,10.0,14.0,64,-99.99,,,-99.99,-0.100000,,2013-03-22 06:41:00,
2013-03-22 00:51:00,27.0,17.0,-100.00,SW,225,9.0,13.0,65,-99.99,,,-99.99,-0.100000,,2013-03-22 06:51:00,
2013-03-22 01:02:00,27.0,17.0,-100.00,SW,235,9.0,13.0,65,-99.99,,,-99.99,-0.100000,,2013-03-22 07:02:00,
2013-03-22 01:11:00,27.0,17.0,-100.00,WSW,239,11.0,15.0,62,-99.99,,,-99.99,-0.200000,,2013-03-22 07:11:00,
2013-03-22 01:21:00,27.0,17.0,-100.00,SW,235,10.0,15.0,64,-99.99,,,-99.99,-0.100000,,2013-03-22 07:21:00,
2013-03-22 01:32:00,27.0,17.0,-100.00,SW,232,9.0,14.0,66,-99.99,,,-99.99,-0.100000,,2013-03-22 07:32:00,
2013-03-22 01:41:00,26.0,17.0,-100.00,WSW,239,10.0,15.0,67,-99.99,,,-99.99,-0.100000,,2013-03-22 07:41:00,
2013-03-22 01:52:00,26.0,16.0,-100.00,WSW,245,11.0,16.0,65,-99.99,,,-99.99,-0.100000,,2013-03-22 07:52:00,
2013-03-22 02:02:00,26.0,16.0,-100.00,WSW,251,9.0,12.0,66,-99.99,,,-99.99,-0.100000,,2013-03-22 08:02:00,
2013-03-22 02:21:00,26.0,16.0,-100.00,WSW,243,10.0,15.0,66,-99.99,,,-99.99,-0.100000,,2013-03-22 08:21:00,
2013-03-22 02:31:00,26.0,16.0,-100.00,WSW,241,10.0,14.0,66,-99.99,,,-99.99,-0.100000,,2013-03-22 08:31:00,
2013-03-22 02:41:00,26.0,16.0,-100.00,WSW,240,10.0,14.0,67,-99.99,,,-99.99,-0.100000,,2013-03-22 08:41:00,
2013-03-22 02:51:00,26.0,16.0,-100.00,WSW,241,9.0,13.0,67,-99.99,,,-99.99,-0.100000,,2013-03-22 08:51:00,
2013-03-22 03:01:00,25.0,16.0,-100.00,WSW,240,10.0,14.0,68,-99.99,,,-99.99,-0.200000,,2013-03-22 09:01:00,
2013-03-22 03:11:00,25.0,17.0,-100.00,SW,232,8.0,10.0,70,-99.99,,,-99.99,-0.100000,,2013-03-22 09:11:00,
2013-03-22 03:21:00,25.0,17.0,-100.00,SW,234,10.0,14.0,69,-99.99,,,-99.99,-0.100000,,2013-03-22 09:21:00,
2013-03-22 03:32:00,25.0,17.0,-100.00,WSW,252,10.0,13.0,69,-99.99,,,-99.99,-0.100000,,2013-03-22 09:32:00,
2013-03-22 03:42:00,25.0,16.0,-100.00,WSW,250,13.0,17.0,67,-99.99,,,-99.99,-0.100000,,2013-03-22 09:42:00,
2013-03-22 03:53:00,26.0,16.0,-100.00,WSW,253,8.0,10.0,66,-99.99,,,-99.99,0.000000,,2013-03-22 09:53:00,
2013-03-22 04:02:00,25.0,16.0,-100.00,West,259,6.0,8.0,68,-99.99,,,-99.99,-0.100000,,2013-03-22 10:02:00,
2013-03-22 04:11:00,25.0,16.0,-100.00,WSW,258,2.0,4.0,69,-99.99,,,-99.99,-0.100000,,2013-03-22 10:11:00,
2013-03-22 04:22:00,25.0,16.0,-100.00,SW,228,2.0,3.0,68,-99.99,,,-99.99,-0.100000,,2013-03-22 10:22:00,
2013-03-22 04:32:00,25.0,16.0,-100.00,South,188,3.0,4.0,69,-99.99,,,-99.99,-0.100000,,2013-03-22 10:32:00,
2013-03-22 04:42:00,24.0,17.0,-100.00,SE,126,3.0,5.0,72,-99.99,,,-99.99,-0.100000,,2013-03-22 10:42:00,
2013-03-22 04:52:00,25.0,17.0,-100.00,WNW,285,6.0,10.0,69,-99.99,,,-99.99,-0.100000,,2013-03-22 10:52:00,
2013-03-22 05:02:00,26.0,17.0,-100.00,NW,306,7.0,13.0,69,-99.99,,,-99.99,-0.100000,,2013-03-22 11:02:00,
2013-03-22 05:11:00,26.0,17.0,-100.00,West,280,6.0,10.0,69,-99.99,,,-99.99,-0.100000,,2013-03-22 11:11:00,
2013-03-22 05:22:00,26.0,17.0,-100.00,WSW,248,6.0,10.0,67,-99.99,,,-99.99,0.000000,,2013-03-22 11:22:00,
2013-03-22 05:32:00,26.0,18.0,-100.00,WSW,244,7.0,11.0,71,-99.99,,,-99.99,-0.100000,,2013-03-22 11:32:00,
2013-03-22 05:41:00,26.0,18.0,-100.00,West,268,3.0,6.0,72,-99.99,,,-99.99,-0.100000,,2013-03-22 11:41:00,
2013-03-22 05:51:00,25.0,18.0,-100.00,WSW,258,4.0,8.0,73,-99.99,,,-99.99,-0.100000,,2013-03-22 11:51:00,
2013-03-22 06:01:00,25.0,19.0,-100.00,West,265,5.0,7.0,75,-99.99,,,-99.99,-0.100000,,2013-03-22 12:01:00,
2013-03-22 06:11:00,26.0,18.0,-100.00,SW,220,4.0,5.0,73,-99.99,,,-99.99,0.000000,,2013-03-22 12:11:00,
2013-03-22 06:21:00,26.0,19.0,-100.00,SSW,211,5.0,7.0,74,-99.99,,,-99.99,0.000000,,2013-03-22 12:21:00,
2013-03-22 06:32:00,26.0,19.0,-100.00,SW,220,5.0,8.0,75,-99.99,,,-99.99,0.000000,,2013-03-22 12:32:00,
2013-03-22 06:41:00,26.0,20.0,-100.00,SW,223,5.0,7.0,76,-99.99,,,-99.99,-0.100000,,2013-03-22 12:41:00,
2013-03-22 06:51:00,26.0,20.0,-100.00,SW,216,6.0,9.0,77,-99.99,,,-99.99,0.000000,,2013-03-22 12:51:00,
2013-03-22 07:02:00,27.0,21.0,-100.00,SW,230,7.0,9.0,77,-99.99,,,-99.99,-0.100000,,2013-03-22 13:02:00,
2013-03-22 07:11:00,27.0,21.0,-100.00,WSW,237,6.0,9.0,77,-99.99,,,-99.99,0.000000,,2013-03-22 13:11:00,
2013-03-22 07:21:00,27.0,20.0,-100.00,WSW,244,10.0,13.0,77,-99.99,,,-99.99,0.000000,,2013-03-22 13:21:00,
2013-03-22 07:32:00,27.0,20.0,-100.00,WSW,257,13.0,19.0,76,-99.99,,,-99.99,0.000000,,2013-03-22 13:32:00,
2013-03-22 07:41:00,26.0,21.0,-100.00,West,268,14.0,19.0,78,-99.99,,,-99.99,0.100000,,2013-03-22 13:41:00,
2013-03-22 07:52:00,26.0,21.0,-100.00,West,260,15.0,23.0,80,-99.99,,,-99.99,0.600000,,2013-03-22 13:52:00,
2013-03-22 08:02:00,26.0,21.0,-100.00,West,259,16.0,22.0,80,-99.99,,,-99.99,1.400000,,2013-03-22 14:02:00,
2013-03-22 08:11:00,26.0,21.0,-100.00,WSW,256,18.0,24.0,80,-99.99,,,-99.99,3.800000,,2013-03-22 14:11:00,
2013-03-22 08:21:00,25.0,20.0,-100.00,WSW,256,13.0,18.0,80,-99.99,,,-99.99,8.100000,,2013-03-22 14:21:00,
2013-03-22 08:31:00,25.0,19.0,-100.00,West,259,17.0,20.0,77,-99.99,,,-99.99,15.600000,,2013-03-22 14:31:00,
2013-03-22 08:41:00,25.0,19.0,-100.00,WSW,256,15.0,20.0,76,-99.99,,,-99.99,25.100000,,2013-03-22 14:41:00,
2013-03-22 08:51:00,25.0,19.0,-100.00,West,263,15.0,19.0,77,-99.99,,,-99.99,30.900000,,2013-03-22 14:51:00,
2013-03-22 09:02:00,25.0,19.0,-100.00,WSW,253,13.0,18.0,77,-99.99,,,-99.99,53.500000,,2013-03-22 15:02:00,
2013-03-22 09:11:00,25.0,19.0,-100.00,WSW,250,12.0,17.0,77,-99.99,,,-99.99,106.099998,,2013-03-22 15:11:00,
2013-03-22 09:21:00,25.0,19.0,-100.00,WSW,248,15.0,20.0,77,-99.99,,,-99.99,107.000000,,2013-03-22 15:21:00,
2013-03-22 09:32:00,26.0,19.0,-100.00,WSW,249,15.0,18.0,76,-99.99,,,-99.99,94.199997,,2013-03-22 15:32:00,
2013-03-22 09:42:00,26.0,19.0,-100.00,West,264,16.0,20.0,74,-99.99,,,-99.99,97.000000,,2013-03-22 15:42:00,
2013-03-22 09:52:00,26.0,19.0,-100.00,West,263,13.0,16.0,74,-99.99,,,-99.99,55.700001,,2013-03-22 15:52:00,
2013-03-22 10:02:00,26.0,19.0,-100.00,West,273,12.0,16.0,75,-99.99,,,-99.99,35.000000,,2013-03-22 16:02:00,
2013-03-22 10:12:00,26.0,19.0,-100.00,West,266,13.0,17.0,75,-99.99,,,-99.99,57.599998,,2013-03-22 16:12:00,
2013-03-22 10:22:00,25.0,18.0,-100.00,WSW,252,11.0,15.0,74,-99.99,,,-99.99,63.099998,,2013-03-22 16:22:00,
2013-03-22 10:32:00,26.0,19.0,-100.00,WSW,252,12.0,16.0,74,-99.99,,,-99.99,80.699997,,2013-03-22 16:32:00,
2013-03-22 10:41:00,26.0,19.0,-100.00,WSW,258,10.0,15.0,73,-99.99,,,-99.99,96.199997,,2013-03-22 16:41:00,
2013-03-22 10:52:00,26.0,19.0,-100.00,WSW,257,11.0,14.0,74,-99.99,,,-99.99,134.399994,,2013-03-22 16:52:00,
2013-03-22 11:02:00,26.0,20.0,-100.00,WSW,241,9.0,12.0,75,-99.99,,,-99.99,210.199997,,2013-03-22 17:02:00,
2013-03-22 11:12:00,27.0,20.0,-100.00,WSW,246,10.0,16.0,73,-99.99,,,-99.99,258.399994,,2013-03-22 17:12:00,
2013-03-22 11:22:00,27.0,20.0,-100.00,SW,234,11.0,14.0,75,-99.99,,,-99.99,347.299988,,2013-03-22 17:22:00,
2013-03-22 11:32:00,27.0,20.0,-100.00,WSW,245,14.0,17.0,75,-99.99,,,-99.99,359.799988,,2013-03-22 17:32:00,
2013-03-22 11:41:00,27.0,20.0,-100.00,WSW,246,12.0,16.0,74,-99.99,,,-99.99,532.099976,,2013-03-22 17:41:00,
2013-03-22 11:52:00,28.0,21.0,-100.00,WSW,248,15.0,21.0,74,-99.99,,,-99.99,553.500000,,2013-03-22 17:52:00,
2013-03-22 12:01:00,28.0,20.0,-100.00,WSW,250,14.0,19.0,70,-99.99,,,-99.99,580.900024,,2013-03-22 18:01:00,
2013-03-22 12:11:00,29.0,21.0,-100.00,WSW,248,14.0,21.0,68,-99.99,,,-99.99,610.099976,,2013-03-22 18:11:00,
2013-03-22 12:21:00,29.0,19.0,-100.00,West,261,13.0,18.0,64,-99.99,,,-99.99,510.899994,,2013-03-22 18:21:00,
2013-03-22 12:32:00,30.0,20.0,-100.00,WSW,244,9.0,13.0,64,-99.99,,,-99.99,694.400024,,2013-03-22 18:32:00,
2013-03-22 12:42:00,28.0,23.0,-100.00,NNW,342,16.0,18.0,81,-99.99,,,-99.99,162.399994,,2013-03-22 18:42:00,
2013-03-22 12:52:00,26.0,22.0,-100.00,North,350,13.0,16.0,87,-99.99,,,-99.99,195.300003,,2013-03-22 18:52:00,
2013-03-22 13:02:00,25.0,22.0,-100.00,NNW,332,8.0,9.0,88,-99.99,,,-99.99,199.100006,,2013-03-22 19:02:00,
2013-03-22 13:11:00,26.0,23.0,-100.00,NW,319,5.0,6.0,89,-99.99,,,-99.99,191.899994,,2013-03-22 19:11:00,
2013-03-22 13:21:00,26.0,23.0,-100.00,North,353,10.0,11.0,88,-99.99,,,-99.99,196.000000,,2013-03-22 19:21:00,
2013-03-22 13:32:00,27.0,22.0,-100.00,North,350,10.0,13.0,83,-99.99,,,-99.99,223.699997,,2013-03-22 19:32:00,
2013-03-22 13:41:00,27.0,23.0,-100.00,North,349,9.0,11.0,84,-99.99,,,-99.99,243.000000,,2013-03-22 19:41:00,
2013-03-22 13:51:00,27.0,23.0,-100.00,North,10,10.0,12.0,86,-99.99,,,-99.99,243.100006,,2013-03-22 19:51:00,
2013-03-22 14:01:00,27.0,23.0,-100.00,North,4,12.0,14.0,84,-99.99,,,-99.99,282.100006,,2013-03-22 20:01:00,
2013-03-22 14:11:00,27.0,23.0,-100.00,NNE,16,13.0,16.0,85,-99.99,,,-99.99,275.399994,,2013-03-22 20:11:00,
2013-03-22 14:22:00,27.0,24.0,-100.00,NNE,13,13.0,16.0,86,-99.99,,,-99.99,244.399994,,2013-03-22 20:22:00,
2013-03-22 14:32:00,27.0,23.0,-100.00,North,9,13.0,15.0,83,-99.99,,,-99.99,257.000000,,2013-03-22 20:32:00,
2013-03-22 14:41:00,27.0,23.0,-100.00,WNW,298,13.0,16.0,84,-99.99,,,-99.99,191.899994,,2013-03-22 20:41:00,
2013-03-22 14:51:00,26.0,23.0,-100.00,WNW,282,11.0,13.0,90,-99.99,,,-99.99,251.899994,,2013-03-22 20:51:00,
2013-03-22 15:02:00,26.0,23.0,-100.00,West,271,10.0,12.0,89,-99.99,,,-99.99,327.200012,,2013-03-22 21:02:00,
2013-03-22 15:11:00,27.0,24.0,-100.00,West,260,9.0,11.0,87,-99.99,,,-99.99,419.299988,,2013-03-22 21:11:00,
2013-03-22 15:21:00,28.0,24.0,-100.00,West,268,9.0,11.0,86,-99.99,,,-99.99,566.599976,,2013-03-22 21:21:00,
2013-03-22 15:32:00,28.0,23.0,-100.00,West,266,6.0,9.0,81,-99.99,,,-99.99,444.500000,,2013-03-22 21:32:00,
2013-03-22 15:42:00,28.0,23.0,-100.00,West,272,7.0,9.0,80,-99.99,,,-99.99,350.299988,,2013-03-22 21:42:00,
2013-03-22 15:52:00,28.0,23.0,-100.00,WSW,257,7.0,9.0,80,-99.99,,,-99.99,379.000000,,2013-03-22 21:52:00,
2013-03-22 16:02:00,28.0,22.0,-100.00,WSW,238,7.0,10.0,79,-99.99,,,-99.99,359.200012,,2013-03-22 22:02:00,
2013-03-22 16:12:00,28.0,22.0,-100.00,WSW,247,7.0,10.0,78,-99.99,,,-99.99,310.399994,,2013-03-22 22:12:00,
2013-03-22 16:22:00,28.0,22.0,-100.00,WSW,251,8.0,10.0,75,-99.99,,,-99.99,453.100006,,2013-03-22 22:22:00,
2013-03-22 16:32:00,29.0,22.0,-100.00,WSW,252,8.0,11.0,74,-99.99,,,-99.99,391.100006,,2013-03-22 22:32:00,
2013-03-22 16:41:00,29.0,21.0,-100.00,SW,232,9.0,11.0,70,-99.99,,,-99.99,385.399994,,2013-03-22 22:41:00,
2013-03-22 16:52:00,29.0,21.0,-100.00,WSW,248,9.0,11.0,71,-99.99,,,-99.99,312.500000,,2013-03-22 22:52:00,
2013-03-22 17:02:00,29.0,22.0,-100.00,WSW,245,11.0,14.0,75,-99.99,,,-99.99,130.500000,,2013-03-22 23:02:00,
2013-03-22 17:11:00,28.0,22.0,-100.00,WNW,288,11.0,13.0,80,-99.99,,,-99.99,43.099998,,2013-03-22 23:11:00,
2013-03-22 17:21:00,26.0,22.0,-100.00,West,279,11.0,13.0,85,-99.99,,,-99.99,67.099998,,2013-03-22 23:21:00,
2013-03-22 17:32:00,26.0,23.0,-100.00,West,260,10.0,12.0,86,-99.99,,,-99.99,130.699997,,2013-03-22 23:32:00,
2013-03-22 17:41:00,26.0,22.0,-100.00,West,264,11.0,14.0,85,-99.99,,,-99.99,163.399994,,2013-03-22 23:41:00,
2013-03-22 17:51:00,26.0,22.0,-100.00,West,263,9.0,11.0,84,-99.99,,,-99.99,163.100006,,2013-03-22 23:51:00,
2013-03-22 18:01:00,26.0,22.0,-100.00,WSW,241,9.0,12.0,85,-99.99,,,-99.99,150.699997,,2013-03-23 00:01:00,
2013-03-22 18:11:00,26.0,23.0,-100.00,WSW,249,8.0,11.0,86,-99.99,,,-99.99,138.699997,,2013-03-23 00:11:00,
2013-03-22 18:22:00,27.0,23.0,-100.00,WSW,239,9.0,11.0,85,-99.99,,,-99.99,134.000000,,2013-03-23 00:22:00,
2013-03-22 18:32:00,27.0,22.0,-100.00,WSW,253,9.0,13.0,83,-99.99,,,-99.99,122.300003,,2013-03-23 00:32:00,
2013-03-22 18:41:00,26.0,22.0,-100.00,WSW,251,8.0,11.0,82,-99.99,,,-99.99,109.199997,,2013-03-23 00:41:00,
2013-03-22 18:51:00,26.0,22.0,-100.00,WSW,251,8.0,10.0,83,-99.99,,,-99.99,88.699997,,2013-03-23 00:51:00,
2013-03-22 19:03:00,27.0,22.0,-100.00,WSW,241,7.0,11.0,82,-99.99,,,-99.99,69.300003,,2013-03-23 01:03:00,
2013-03-22 19:11:00,26.0,21.0,-100.00,WSW,243,9.0,13.0,80,-99.99,,,-99.99,55.299999,,2013-03-23 01:11:00,
2013-03-22 19:21:00,26.0,20.0,-100.00,SW,229,9.0,13.0,77,-99.99,,,-99.99,42.700001,,2013-03-23 01:21:00,
2013-03-22 19:31:00,26.0,20.0,-100.00,SW,232,8.0,13.0,78,-99.99,,,-99.99,30.700001,,2013-03-23 01:31:00,
2013-03-22 19:42:00,26.0,21.0,-100.00,SW,227,8.0,11.0,80,-99.99,,,-99.99,21.200001,,2013-03-23 01:42:00,
2013-03-22 19:52:00,26.0,21.0,-100.00,SW,214,8.0,10.0,83,-99.99,,,-99.99,11.300000,,2013-03-23 01:52:00,
2013-03-22 20:02:00,26.0,21.0,-100.00,SW,231,7.0,9.0,83,-99.99,,,-99.99,3.800000,,2013-03-23 02:02:00,
2013-03-22 20:11:00,25.0,21.0,-100.00,WSW,245,6.0,10.0,84,-99.99,,,-99.99,0.900000,,2013-03-23 02:11:00,
2013-03-22 20:21:00,25.0,22.0,-100.00,SW,217,4.0,7.0,86,-99.99,,,-99.99,0.100000,,2013-03-23 02:21:00,
2013-03-22 20:31:00,25.0,22.0,-100.00,SSW,211,4.0,5.0,86,-99.99,,,-99.99,-0.100000,,2013-03-23 02:31:00,
2013-03-22 20:42:00,25.0,22.0,-100.00,SW,215,6.0,8.0,87,-99.99,,,-99.99,0.000000,,2013-03-23 02:42:00,
2013-03-22 20:51:00,25.0,22.0,-100.00,SW,216,8.0,11.0,87,-99.99,,,-99.99,-0.100000,,2013-03-23 02:51:00,
2013-03-22 21:02:00,25.0,22.0,-100.00,SW,224,10.0,12.0,87,-99.99,,,-99.99,-0.100000,,2013-03-23 03:02:00,
2013-03-22 21:11:00,25.0,22.0,-100.00,SW,224,9.0,12.0,87,-99.99,,,-99.99,0.000000,,2013-03-23 03:11:00,
2013-03-22 21:21:00,25.0,22.0,-100.00,WSW,241,7.0,10.0,87,-99.99,,,-99.99,-0.100000,,2013-03-23 03:21:00,
2013-03-22 21:32:00,25.0,21.0,-100.00,SW,233,8.0,11.0,87,-99.99,,,-99.99,-0.100000,,2013-03-23 03:32:00,
2013-03-22 21:42:00,25.0,21.0,-100.00,SW,236,10.0,13.0,86,-99.99,,,-99.99,-0.100000,,2013-03-23 03:42:00,
2013-03-22 21:52:00,25.0,21.0,-100.00,SW,235,8.0,12.0,86,-99.99,,,-99.99,-0.100000,,2013-03-23 03:52:00,
2013-03-22 22:02:00,24.0,21.0,-100.00,WSW,243,7.0,10.0,87,-99.99,,,-99.99,-0.100000,,2013-03-23 04:02:00,
2013-03-22 22:12:00,24.0,21.0,-100.00,SW,231,6.0,9.0,87,-99.99,,,-99.99,-0.100000,,2013-03-23 04:12:00,
2013-03-22 22:22:00,24.0,21.0,-100.00,SW,233,5.0,7.0,87,-99.99,,,-99.99,-0.100000,,2013-03-23 04:22:00,
2013-03-22 22:32:00,24.0,21.0,-100.00,SW,224,6.0,8.0,87,-99.99,,,-99.99,0.000000,,2013-03-23 04:32:00,
2013-03-22 22:42:00,24.0,21.0,-100.00,SW,223,6.0,9.0,87,-99.99,,,-99.99,-0.200000,,2013-03-23 04:42:00,
2013-03-22 22:52:00,24.0,21.0,-100.00,SW,229,6.0,8.0,87,-99.99,,,-99.99,0.000000,,2013-03-23 04:52:00,
2013-03-22 23:02:00,24.0,20.0,-100.00,SW,235,7.0,9.0,87,-99.99,,,-99.99,-0.100000,,2013-03-23 05:02:00,
2013-03-22 23:11:00,24.0,20.0,-100.00,SW,226,6.0,9.0,87,-99.99,,,-99.99,-0.100000,,2013-03-23 05:11:00,
2013-03-22 23:21:00,24.0,21.0,-100.00,SW,226,8.0,11.0,88,-99.99,,,-99.99,-0.100000,,2013-03-23 05:21:00,
2013-03-22 23:32:00,24.0,20.0,-100.00,SW,228,7.0,10.0,88,-99.99,,,-99.99,-0.100000,,2013-03-23 05:32:00,
2013-03-22 23:42:00,24.0,21.0,-100.00,SW,221,6.0,8.0,87,-99.99,,,-99.99,0.000000,,2013-03-23 05:42:00,
2013-03-22 23:52:00,24.0,21.0,-100.00,SW,220,7.0,11.0,88,-99.99,,,-99.99,-0.100000,,2013-03-23 05:52:00,